Погода в Галице

Россия / Тульская область     53°07′34″N   37°51′25″E
темп.,
°C
ветер,
м/с
пор.,
м/с
влажн.,
%
обл.,
%
осадки,
мм/ч
давл.,
гПа
погр.,
м
15 июня, вт
вт1500:00+17с22895 0.0 101515
03:00+16с22915 0.0 101520
06:00+17с24896 0.0 101596
09:00+21ссв23755 0.0 1014475
12:00+23ссв226876 2.2 1013755
15:00+25с225974 2.5 10121585
18:00+23ссз3477100 0.5 1011236
21:00+19ссв1180100 1.4 101111
16 июня, ср
ср1600:00+17сз2288100 0.5 101019
03:00+16ссз3392100 0.5 101046
06:00+17ссз359399 0.0 1011146
09:00+21ссз458153 0.0 1012534
12:00+23ссз55736 1.3 1013995
15:00+23с666851 1.8 10131442
18:00+22ссв46785 0.8 1014827
21:00+18ссв36880 0.9 1017117
17 июня, чт
чт1700:00+15с49880 0.0 1018169
03:00+13ссв49865 0.0 1020150
06:00+13ссв410845 0.0 1021231
09:00+18св57680 0.0 1022516
12:00+20св56590 0.0 10231229
15:00+21св56590 0.0 10241270
18:00+19св47710 0.0 1024872
21:00+15ссв33830 0.0 102625
18 июня, пт
пт1800:00+14св33785 0.0 102637
03:00+13св33825 0.0 102728
06:00+14св23825 0.0 102891
09:00+19всв34685 0.0 1029485
12:00+21в34600 0.0 10281305
15:00+23в23570 0.0 10281582
18:00+22вюв22670 0.0 10271389
21:00+17ююв22790 0.0 102811
19 июня, сб
сб1900:00+15ю118236 0.0 102911
03:00+14ююз11860 0.0 102911
06:00+16ююз12850 0.0 103059
09:00+20ю11710 0.0 1030478
12:00+22ююв22640 0.0 10291103
15:00+24ю22612 0.0 10281304
18:00+23ю22694 0.0 10271145
21:00+18ююз22830 0.0 102711